This is the latest recevied weather packets stored in our database for station/object IU7URP-13. If no packets are shown the sender has not sent any weather packets the latest 10 day(s).
| Time | Temp. | Humidity | Pressure | Rain* | Wind** | Luminosity | Snow |
|---|---|---|---|---|---|---|---|
| 1777945850 | 13.33° C | 99% | 1021.2 hPa | - | - | - | - |
| 1777944649 | 12.78° C | 99% | 1021.2 hPa | - | - | - | - |
| 1777943448 | 12.22° C | 99% | 1021.1 hPa | - | - | - | - |
| 1777942246 | 12.22° C | 99% | 1021.1 hPa | - | - | - | - |
| 1777941045 | 12.78° C | 99% | 1021.1 hPa | - | - | - | - |
| 1777939849 | 13.33° C | 99% | 1021.2 hPa | - | - | - | - |
| 1777938647 | 14.44° C | 99% | 1021.2 hPa | - | - | - | - |
| 1777937446 | 14.44° C | 99% | 1021.4 hPa | - | - | - | - |
| 1777936255 | 13.89° C | 99% | 1021.6 hPa | - | - | - | - |
| 1777935053 | 13.33° C | 99% | 1021.8 hPa | - | - | - | - |
| 1777933852 | 13.89° C | 99% | 1021.7 hPa | - | - | - | - |
| 1777932650 | 15.56° C | 99% | 1021.5 hPa | - | - | - | - |
| 1777931448 | 16.11° C | 99% | 1021.4 hPa | - | - | - | - |
| 1777930246 | 16.11° C | 99% | 1021.3 hPa | - | - | - | - |
| 1777929045 | 16.11° C | 99% | 1021.2 hPa | - | - | - | - |
| 1777927844 | 16.67° C | 99% | 1021.2 hPa | - | - | - | - |
| 1777926642 | 16.67° C | 99% | 1021 hPa | - | - | - | - |
| 1777925440 | 17.22° C | 99% | 1021 hPa | - | - | - | - |
| 1777924239 | 18.33° C | 99% | 1021 hPa | - | - | - | - |
| 1777923036 | 18.33° C | 99% | 1020.9 hPa | - | - | - | - |
| 1777921834 | 17.78° C | 99% | 1020.8 hPa | - | - | - | - |
| 1777920633 | 17.78° C | 99% | 1020.6 hPa | - | - | - | - |
| 1777919429 | 18.33° C | 99% | 1020.4 hPa | - | - | - | - |
| 1777918228 | 18.33° C | 99% | 1020.1 hPa | - | - | - | - |
| 1777917026 | 18.89° C | 99% | 1020 hPa | - | - | - | - |
* Rain since midnight (hover to see other rain measurements)
** Current wind speed in m/s (hover to see current wind gust speed)